Wind_Speed
57 58 58 58 59 59 59 59 59 59 59 58 57 55 54 53 52 50 48 46 45 44 42 41 39 37 36 34 33 31 30 28 26 25 26 25 24 24 24 24 24 23 24
61 61 61 61 62 62 62 62 62 62 62 61 60 59 59 58 56 54 52 50 48 46 44 43 41 39 37 36 34 32 31 29 27 25 25 25 24 23 24 24 23 23 24
64 64 64 64 64 64 65 65 65 65 65 65 65 64 63 62 60 59 57 54 51 49 47 45 43 42 39 37 35 33 31 30 28 26 25 24 23 23 24 24 23 23 24
64 63 63 62 62 63 63 64 64 65 66 67 67 67 66 65 63 61 60 57 55 52 50 48 46 44 42 39 36 34 32 30 29 27 25 24 23 23 23 23 23 24 24
61 60 59 58 58 57 57 57 57 58 59 61 63 65 66 65 65 64 62 59 57 55 53 51 49 46 43 41 38 36 33 31 29 27 25 24 23 22 22 23 23 24 24
57 55 54 53 52 50 49 48 48 47 48 49 52 56 59 62 63 64 64 62 59 57 56 53 50 48 45 42 40 37 34 32 29 27 25 24 23 23 22 22 22 23 24
53 51 49 48 46 44 42 41 40 39 39 38 40 43 47 50 54 58 60 60 59 58 57 55 52 50 47 44 40 38 35 32 30 28 25 23 23 23 22 22 22 23 24
50 48 46 44 42 39 37 37 36 36 36 35 35 35 37 40 43 47 51 54 55 56 56 55 53 50 47 44 41 39 36 33 30 28 26 24 23 22 22 22 22 23 23
47 46 44 42 40 38 37 35 35 34 34 33 33 32 32 33 35 38 42 46 48 50 52 53 52 50 48 45 42 39 36 33 31 28 26 24 23 22 22 23 23 23 24
46 43 41 40 39 37 36 36 35 34 33 32 32 31 30 29 30 32 34 38 42 45 47 50 50 49 47 45 42 39 36 33 31 29 26 24 23 23 22 22 22 23 23
43 41 40 38 37 36 35 35 34 33 32 31 30 30 29 28 28 28 29 32 36 41 44 46 48 48 46 44 42 40 36 33 30 29 26 25 24 23 22 22 22 23 23
41 40 38 37 36 35 34 34 33 32 31 30 29 29 28 27 27 27 26 27 31 36 40 44 45 47 45 44 42 39 36 33 31 29 26 25 24 24 23 23 23 23 23
41 39 37 36 35 34 33 32 31 31 30 29 28 28 27 26 25 24 24 24 26 30 36 41 43 46 44 42 41 39 36 33 30 28 27 25 24 25 25 25 24 23 23
39 36 35 34 32 31 31 30 29 28 28 27 26 25 25 24 23 22 22 22 23 28 34 39 41 43 44 41 40 38 36 33 30 28 26 25 25 24 24 24 23 23 23
35 33 30 29 28 27 27 26 26 25 25 24 23 22 22 22 22 21 20 20 21 27 34 37 40 41 42 40 39 37 35 33 31 28 26 25 25 24 24 24 23 22 22
31 28 25 24 23 22 22 22 22 22 21 22 21 20 20 20 20 20 20 20 21 26 33 37 39 39 40 39 38 36 33 31 30 28 27 26 25 24 23 22 21 21 21
28 25 22 20 18 17 16 16 17 17 18 19 19 19 18 18 19 18 18 19 21 26 32 36 39 38 38 39 38 36 33 31 29 28 27 25 24 23 23 22 22 21 21
25 22 19 17 14 12 11 10 11 12 15 16 16 17 17 16 16 16 17 19 21 26 29 34 37 38 38 38 37 35 33 31 29 28 26 25 24 23 22 22 21 21 21
24 21 18 15 12 9 6 5 6 8 10 12 13 14 15 15 15 15 17 19 22 25 27 31 35 37 36 37 35 34 33 31 29 28 26 25 24 23 22 22 21 21 21
23 20 17 14 11 8 5 3 3 5 7 9 11 13 13 14 15 17 19 20 22 24 27 31 34 36 36 35 34 33 32 31 29 28 27 26 25 24 23 22 22 21 21
24 21 18 15 12 10 6 3 1 3 6 9 11 13 14 15 17 19 21 22 22 25 27 31 34 35 35 35 35 33 31 30 29 28 27 27 26 24 23 22 21 20 20
25 23 20 17 14 11 9 6 5 7 8 10 12 14 15 17 20 21 23 24 24 26 29 32 35 35 35 35 34 32 31 29 28 27 27 26 25 23 22 20 20 19 19
27 24 22 20 17 14 12 11 10 10 11 12 14 15 18 21 22 23 24 25 27 29 31 33 34 34 34 34 32 31 29 28 27 26 25 23 23 21 20 19 19 18 18
28 27 25 22 20 19 17 15 15 14 15 16 18 20 22 24 25 26 27 28 30 31 32 32 33 33 33 32 30 29 27 26 25 24 23 22 21 19 18 18 17 17 17
29 28 27 25 24 22 21 20 20 20 21 22 23 24 25 27 28 29 29 29 30 30 31 32 31 31 30 29 27 26 25 24 23 22 21 20 18 17 17 17 17 17 17
29 28 27 27 26 25 25 25 25 25 26 27 27 27 27 29 30 29 29 29 29 30 30 30 29 28 28 26 25 24 23 22 20 19 18 17 16 16 16 16 16 17 18
Wind_Direction
291 289 287 285 283 281 279 277 276 274 273 271 270 268 267 266 264 263 261 261 261 260 260 260 261 263 264 265 267 268 270 270 272 272 273 272 271 266 259 257 256 252 246
291 289 287 284 282 280 278 276 274 272 271 270 268 266 265 264 263 262 260 259 259 258 258 258 258 259 260 262 264 266 267 268 270 269 270 269 267 264 259 256 253 248 244
292 290 287 285 282 280 278 275 273 271 269 268 266 265 264 262 261 260 258 257 256 256 255 255 255 255 257 259 260 262 264 266 266 267 267 266 265 261 257 254 249 244 240
293 291 289 287 284 281 279 276 274 271 269 266 265 263 261 260 259 258 257 255 254 253 252 252 252 253 254 255 256 259 261 262 263 263 263 263 262 260 256 252 248 243 239
295 294 292 289 287 284 281 278 275 273 270 267 264 261 259 258 256 256 255 254 252 251 250 249 250 250 250 251 252 255 257 259 259 259 260 259 258 258 254 251 247 242 238
297 295 293 291 288 286 283 280 277 275 272 269 266 262 260 257 255 254 253 251 250 249 247 247 247 246 246 247 248 250 253 255 256 256 257 256 254 253 252 249 246 242 237
298 296 294 292 290 286 283 280 277 274 272 270 268 265 262 259 256 253 251 249 248 246 245 244 244 243 243 244 244 246 249 251 252 252 253 253 251 249 249 247 244 240 237
298 296 294 291 288 285 282 279 277 274 271 269 269 269 266 262 258 254 250 247 244 243 241 240 239 239 238 238 239 241 244 245 246 248 250 250 247 246 244 243 241 238 236
299 296 292 289 285 282 279 277 277 275 272 269 268 269 268 265 260 256 251 245 241 239 237 235 233 233 233 234 234 236 239 240 241 243 245 246 245 243 242 243 240 236 234
299 295 291 287 284 280 277 276 275 274 271 269 267 266 266 265 262 257 251 245 240 236 233 230 227 227 228 228 230 232 235 236 236 238 240 242 243 241 240 240 236 232 229
300 296 292 288 284 280 276 275 273 272 270 268 266 264 263 262 260 257 252 245 239 233 228 224 221 220 222 223 225 227 229 231 232 234 236 238 239 238 234 232 232 231 229
302 297 292 288 284 281 277 273 270 269 268 266 264 261 261 260 257 254 252 245 238 230 222 216 216 215 216 218 220 222 224 226 227 229 231 233 234 231 228 226 228 227 225
303 298 293 289 285 281 277 272 269 265 263 263 261 259 256 254 254 252 250 244 237 227 217 211 209 210 211 213 215 217 219 221 222 224 227 227 227 227 227 227 226 224 220
308 302 295 289 285 281 276 271 267 264 261 258 256 254 251 250 249 249 246 240 234 222 210 203 201 204 206 208 209 211 213 215 216 218 221 222 222 223 223 221 220 220 220
311 308 302 294 288 282 276 271 265 260 257 252 250 249 246 245 243 242 240 233 228 216 204 197 194 196 200 203 204 205 208 209 210 213 216 217 217 217 215 213 214 215 213
318 314 308 301 293 285 278 269 263 258 252 245 242 242 242 240 237 235 233 227 218 209 201 196 191 191 196 197 198 199 200 202 203 206 210 211 209 208 208 207 208 207 205
328 324 318 311 302 292 281 268 259 252 246 240 238 237 235 232 230 227 223 214 206 200 197 193 189 187 190 191 192 192 193 195 197 199 200 201 201 201 202 202 201 200 198
339 336 332 326 318 306 289 271 254 241 237 235 231 228 225 222 219 214 208 200 195 194 193 190 186 182 183 185 186 187 189 191 191 192 193 194 194 194 195 196 196 196 196
349 348 345 342 339 333 314 278 247 234 229 222 217 213 210 207 204 199 192 188 186 186 185 185 182 177 176 179 181 183 185 186 186 188 188 189 189 190 192 192 194 195 199
359 358 357 356 355 352 343 305 246 222 210 205 198 194 193 191 187 182 178 179 179 178 177 179 176 174 174 176 178 179 180 182 182 183 185 186 186 187 189 192 196 200 204
9 8 6 5 6 10 12 17 124 168 170 172 174 176 178 176 172 169 167 170 172 172 171 172 172 173 173 173 173 173 175 176 178 180 181 182 183 185 189 192 197 201 205
16 16 19 22 22 26 35 52 91 127 138 148 156 160 163 163 160 158 161 164 164 164 164 166 168 168 170 170 168 169 171 173 175 177 179 182 185 188 192 197 200 205 209
25 27 29 33 40 46 55 69 90 112 126 138 144 147 149 150 150 151 153 155 156 157 158 161 163 163 165 165 166 167 170 172 175 177 179 182 186 191 197 201 205 210 215
32 35 39 44 50 57 64 73 86 100 114 124 131 134 138 141 142 143 144 146 150 152 153 156 160 160 161 162 165 168 170 173 176 178 181 186 191 197 202 206 210 215 220
38 42 45 49 56 63 69 76 85 95 106 115 122 126 130 134 137 138 139 142 146 149 152 156 157 159 161 162 165 168 171 174 178 182 186 190 196 202 207 213 218 224 230
45 47 51 56 62 68 74 80 87 95 103 110 115 121 126 130 133 135 137 140 142 146 149 152 155 158 161 163 166 170 174 178 182 186 191 195 201 208 215 222 229 235 239
Height
5737 5733 5729 5726 5723 5721 5718 5717 5716 5715 5715 5716 5717 5718 5719 5720 5723 5725 5727 5729 5731 5734 5736 5738 5741 5742 5744 5745 5746 5747 5748 5749 5750 5749 5747 5747 5746 5747 5748 5749 5750 5752 5753
5719 5714 5710 5706 5703 5700 5698 5697 5696 5695 5695 5695 5697 5698 5700 5702 5705 5708 5711 5714 5717 5720 5723 5725 5728 5731 5733 5735 5736 5738 5739 5740 5741 5741 5740 5739 5739 5740 5741 5742 5744 5745 5747
5698 5693 5688 5684 5680 5677 5675 5674 5673 5673 5673 5673 5675 5677 5679 5682 5685 5689 5693 5697 5701 5705 5708 5712 5716 5719 5722 5724 5726 5728 5729 5731 5732 5733 5733 5732 5733 5733 5734 5736 5737 5739 5741
5677 5671 5666 5662 5658 5654 5652 5650 5649 5649 5649 5650 5651 5654 5657 5660 5664 5668 5673 5678 5684 5688 5693 5698 5702 5706 5710 5713 5716 5718 5720 5722 5723 5724 5725 5725 5726 5726 5727 5729 5731 5733 5735
5657 5651 5645 5640 5636 5632 5630 5628 5626 5625 5625 5626 5628 5630 5633 5637 5642 5647 5653 5659 5665 5670 5676 5682 5688 5693 5697 5701 5705 5708 5710 5712 5714 5716 5717 5718 5719 5719 5721 5722 5724 5726 5728
5638 5632 5627 5622 5617 5613 5611 5608 5607 5606 5606 5606 5606 5608 5611 5615 5620 5625 5631 5638 5645 5652 5659 5665 5672 5678 5684 5689 5694 5697 5700 5703 5706 5707 5709 5710 5711 5713 5714 5715 5718 5720 5722
5622 5616 5610 5605 5601 5597 5595 5593 5592 5591 5590 5590 5590 5591 5592 5595 5599 5603 5610 5617 5625 5633 5640 5648 5655 5663 5670 5676 5682 5686 5690 5693 5697 5699 5701 5703 5704 5706 5707 5709 5711 5713 5716
5606 5600 5595 5590 5587 5584 5581 5580 5578 5577 5577 5577 5577 5577 5578 5579 5581 5585 5591 5598 5606 5614 5622 5630 5639 5648 5656 5663 5669 5675 5680 5684 5687 5690 5693 5695 5697 5699 5701 5703 5704 5707 5709
5591 5585 5579 5575 5572 5570 5568 5566 5565 5565 5564 5565 5565 5565 5566 5566 5568 5571 5574 5580 5588 5596 5604 5613 5623 5633 5642 5650 5657 5664 5669 5674 5678 5681 5684 5687 5689 5691 5693 5696 5698 5700 5703
5575 5569 5564 5560 5557 5555 5554 5553 5552 5552 5552 5552 5553 5554 5555 5556 5556 5558 5561 5566 5573 5580 5588 5597 5608 5618 5628 5637 5645 5652 5659 5664 5669 5673 5676 5679 5682 5684 5687 5689 5692 5694 5697
5559 5554 5549 5545 5542 5541 5540 5539 5539 5540 5540 5541 5542 5543 5544 5545 5546 5548 5550 5554 5558 5565 5574 5583 5594 5604 5615 5625 5633 5642 5649 5655 5660 5664 5668 5671 5674 5677 5680 5683 5686 5689 5691
5544 5539 5535 5531 5528 5527 5526 5526 5526 5527 5528 5529 5531 5532 5534 5535 5537 5539 5541 5544 5547 5553 5561 5571 5581 5592 5603 5613 5622 5631 5639 5645 5651 5656 5660 5664 5668 5671 5674 5677 5680 5683 5686
5530 5525 5520 5517 5515 5513 5513 5513 5514 5515 5516 5518 5520 5522 5524 5526 5528 5530 5532 5535 5538 5543 5550 5559 5570 5581 5592 5602 5612 5621 5629 5636 5643 5648 5653 5657 5661 5664 5667 5670 5674 5677 5680
5516 5511 5507 5504 5502 5500 5500 5500 5502 5503 5505 5508 5510 5512 5515 5517 5520 5522 5525 5528 5531 5535 5541 5550 5561 5572 5582 5593 5603 5612 5621 5629 5635 5641 5646 5650 5654 5658 5661 5665 5668 5671 5675
5505 5499 5495 5492 5490 5489 5488 5489 5491 5493 5495 5498 5501 5504 5507 5510 5512 5515 5518 5521 5524 5528 5534 5543 5553 5564 5575 5585 5596 5605 5613 5621 5628 5634 5639 5644 5648 5652 5656 5659 5663 5667 5670
5495 5490 5486 5482 5480 5479 5479 5480 5481 5484 5486 5490 5493 5496 5500 5503 5506 5509 5512 5515 5518 5522 5529 5537 5547 5558 5569 5579 5590 5599 5607 5615 5621 5628 5633 5638 5642 5647 5651 5655 5659 5662 5666
5489 5484 5479 5476 5473 5472 5472 5472 5474 5477 5480 5483 5487 5490 5494 5497 5500 5504 5507 5510 5514 5519 5525 5533 5543 5553 5564 5574 5584 5594 5602 5609 5616 5622 5628 5633 5638 5643 5647 5652 5655 5659 5663
5485 5480 5476 5472 5470 5468 5467 5468 5469 5472 5475 5478 5481 5485 5489 5492 5496 5500 5503 5507 5512 5517 5523 5531 5540 5550 5560 5570 5580 5589 5598 5605 5612 5618 5624 5630 5635 5640 5644 5648 5652 5656 5661
5484 5479 5475 5471 5469 5467 5466 5466 5467 5469 5471 5474 5477 5481 5485 5489 5493 5497 5501 5505 5511 5516 5523 5530 5539 5548 5558 5568 5578 5587 5595 5602 5609 5615 5621 5627 5632 5637 5642 5646 5650 5654 5659
5485 5480 5475 5472 5469 5467 5466 5465 5466 5467 5469 5472 5475 5479 5483 5487 5491 5496 5500 5505 5511 5517 5524 5531 5540 5549 5558 5568 5577 5585 5593 5600 5607 5613 5619 5624 5630 5635 5640 5644 5648 5652 5656
5487 5482 5477 5473 5471 5469 5467 5466 5467 5468 5470 5472 5475 5479 5483 5487 5491 5496 5502 5508 5514 5520 5527 5534 5542 5551 5560 5568 5577 5585 5592 5599 5606 5612 5618 5623 5628 5633 5638 5642 5646 5649 5653
5491 5485 5481 5476 5473 5471 5469 5468 5468 5470 5472 5474 5477 5480 5484 5488 5493 5498 5504 5511 5516 5523 5530 5538 5546 5554 5562 5570 5578 5586 5593 5600 5606 5612 5617 5623 5627 5632 5636 5640 5643 5647 5650
5497 5491 5486 5482 5478 5475 5473 5472 5473 5473 5475 5478 5480 5483 5487 5492 5497 5503 5509 5515 5521 5528 5535 5543 5551 5558 5566 5574 5581 5588 5595 5601 5607 5612 5617 5622 5627 5631 5634 5638 5641 5644 5647
5504 5499 5494 5489 5486 5483 5480 5479 5478 5479 5480 5482 5485 5489 5493 5497 5503 5509 5514 5521 5527 5534 5541 5548 5556 5563 5570 5577 5584 5591 5596 5602 5607 5612 5617 5621 5626 5629 5633 5636 5638 5641 5643
5513 5508 5503 5499 5495 5492 5490 5488 5487 5487 5488 5491 5494 5497 5501 5506 5511 5516 5522 5528 5534 5541 5548 5555 5562 5568 5575 5581 5587 5593 5598 5604 5608 5613 5617 5621 5624 5628 5630 5633 5635 5637 5639
5523 5518 5513 5509 5506 5503 5501 5499 5498 5498 5499 5501 5504 5507 5511 5515 5520 5525 5531 5536 5542 5549 5555 5561 5567 5574 5579 5585 5590 5596 5600 5605 5609 5613 5617 5620 5623 5626 5628 5630 5631 5633 5634